Location: ??? ???
(33.4974°N, 35.4618°E)
Time: 16:52:48
(UTC+00:00)

MOS 1 Rocket - Pass Details

Date: 29 October 2020
Orbit: 615 x 829 km, 97.4° (Epoch: 30 November)

Event Time Altitude Azimuth Distance (km) Brightness Sun altitude
Rises 16:25:45 0° 11° (N) 3,088 6.5 -20.7°
Reaches altitude 10° 16:27:57 10° 11° (N) 2,198 5.7 -21.2°
Maximum altitude 16:32:49 89° 284° (WNW) 751 3.3 -22.2°
Drops below altitude 10° 16:37:57 10° 193° (SSW) 2,320 6.1 -23.3°
Sets 16:40:19 0° 193° (SSW) 3,273 6.9 -23.8°
